This is the latest recevied weather packets stored in our database for station/object K5NAN. If no packets are shown the sender has not sent any weather packets the latest 10 day(s).
| Time | Temp. | Humidity | Pressure | Rain* | Wind** | Luminosity | Snow |
|---|---|---|---|---|---|---|---|
| 1777945503 | 22.78° C | 69% | 1005.2 hPa | 0 mm | - | 0 W/m² | - |
| 1777945200 | 22.78° C | 68% | 1005.3 hPa | 0 mm | - | 0 W/m² | - |
| 1777944897 | 22.78° C | 67% | 1005.4 hPa | 0 mm | - | 0 W/m² | - |
| 1777944594 | 22.78° C | 67% | 1005.2 hPa | 0 mm | - | 0 W/m² | - |
| 1777944292 | 23.33° C | 67% | 1005.3 hPa | 0 mm | - | 0 W/m² | - |
| 1777943989 | 23.33° C | 66% | 1005.1 hPa | 0 mm | - | 0 W/m² | - |
| 1777943685 | 23.33° C | 66% | 1005.3 hPa | 0 mm | - | 1 W/m² | - |
| 1777943382 | 23.33° C | 65% | 1005 hPa | 0 mm | - | 2 W/m² | - |
| 1777943078 | 23.89° C | 65% | 1005.2 hPa | 0 mm | - | 3 W/m² | - |
| 1777942774 | 23.89° C | 64% | 1005.3 hPa | 0 mm | - | 6 W/m² | - |
| 1777942471 | 23.89° C | 64% | 1005.2 hPa | 0 mm | - | 8 W/m² | - |
| 1777942169 | 23.89° C | 63% | 1005.1 hPa | 0 mm | - | 14 W/m² | - |
| 1777941865 | 23.89° C | 63% | 1005.3 hPa | 0 mm | - | 19 W/m² | - |
| 1777941562 | 23.89° C | 63% | 1005.1 hPa | 0 mm | - | 25 W/m² | - |
| 1777941259 | 24.44° C | 63% | 1005.1 hPa | 0 mm | - | 28 W/m² | - |
| 1777940955 | 24.44° C | 62% | 1005.2 hPa | 0 mm | - | 30 W/m² | - |
| 1777940652 | 24.44° C | 62% | 1005.2 hPa | 0 mm | - | 37 W/m² | - |
| 1777940350 | 25° C | 61% | 1005.5 hPa | 0 mm | - | 53 W/m² | - |
| 1777940047 | 25° C | 61% | 1005.1 hPa | 0 mm | - | 77 W/m² | - |
| 1777939744 | 25° C | 61% | 1005.2 hPa | 0 mm | - | 87 W/m² | - |
| 1777939442 | 25° C | 60% | 1005.4 hPa | 0 mm | - | 91 W/m² | - |
| 1777939138 | 25° C | 60% | 1005.2 hPa | 0 mm | - | 87 W/m² | - |
| 1777938835 | 25° C | 60% | 1005.3 hPa | 0 mm | - | 85 W/m² | - |
| 1777938531 | 25° C | 60% | 1005.6 hPa | 0 mm | - | 82 W/m² | - |
| 1777938230 | 25° C | 60% | 1005.4 hPa | 0 mm | - | 84 W/m² | - |
* Rain latest hour (hover to see other rain measurements)
** Current wind speed in m/s (hover to see current wind gust speed)